Location: Eschertshofen
(49.3064°N, 11.5756°E)
Time: 23:50:24
(UTC+00:00)

Iridium 26 - Pass Details

Date: 04 October 2021
Orbit: 772 x 775 km, 86.4° (Epoch: 21 October)

Event Time Altitude Azimuth Distance (km) Brightness Sun altitude
Exits shadow 20:45:25 28° 305° (NW) 1,442 7.3 -36.8°
Drops below altitude 10° 20:48:59 10° 345° (NNW) 2,332 8.6 -37.2°
Sets 20:51:39 0° 357° (N) 3,264 9.4 -37.5°
